FENGYUN 1C DEB, 30017

Orbit data source: Space-Track

FENGYUN 1C DEB, 30017 is space debris in SSO originally from a launch on Mon, 10 May 1999 UTC launched from the Taiyaun Space Center, China (TSC). Fengyun 1C debris stems from the Chinese weather satellite Fengyun-1C, which was intentionally destroyed by a Chinese anti-satellite missile in 2007. This event dramatically increased the amount of space debris, with thousands of trackable fragments posing hazards to satellites and human spaceflight. The Fengyun 1C debris cloud has become a focal point in discussions about space sustainability and the need for international regulations to prevent the creation of new debris.

Loading next visibility...
Identifier
30017, 1999-025MS
Orbit
SSO
Country
Flag of CNCN / PRC
Related business
Manufacturer
Unknown
Mission
Spacecraft
Bus & Motor
Unknown
Mass
Unknown
Launch date (UTC)
1999-05-10 (27 years ago)
Launch vehicle
Unknown
Launch site
Taiyaun Space Center, China (TSC)
Object type
Payload
Rocket body
Debris
Shape & HBR
Unknown shape, 0.1 m
Radar Cross Section
Medium (>0.1 m² and <1 m²)

Expand to show TLE details & history
Last TLE update: 1 day ago

TLE from 1 day ago
0 FENGYUN 1C DEB
1 30017U 99025MS  26207.13407512  .00000950  00000-0  14689-3 0  9991
2 30017  98.7241 269.5223 0215610 200.5091 158.7354 14.61655376 37361
Epoch: 2026-07-26T03:13Z
TLE epoch observation values (Epoch: 2026-07-26T03:13:04.090Z)
Latitude
-0.00004°
Longitude
-82.5811°
Altitude
833.231 km
Speed
7.361 km/s
True Right ascension
17h 58m 05s
True Declination
0° 00' 00"
Sunlit
Object was in full shadow at epoch
Visualization orbit readout
Latitude
Unknown
Longitude
Unknown
Altitude
Unknown
Speed
Unknown
Apparent Right ascension
Unknown
Apparent Declination
Unknown
Sunlit
N/A
Visualization observer readout
Local Sidereal Time
21:06:11
Azimuth
Unknown
Elevation
Unknown
Doppler factor
Unknown
Orbital elements
Apogee altitude
837.223 km
Perigee altitude
532.649 km
Semi-major axis
7,063.073 km
Eccentricity
0.02156
Inclination
98.7241°
RAAN
269.5223°
Arg. of periapsis
200.5091°
True anomaly
159.60946°
Mean anomaly
158.7354°
Eccentric anomaly
159.17459°
Mean motion
3.65639 °/min
Orbital period
98.46 mins
BSTAR
0.00014689
Loading maneuver chart data...
Computing Atmospheric mass density...

Documentation

Showing up to 5 results
|